Location: Newark
(46.7000°N, 60.6000°W)
Time: 03:46:06
(UTC+00:00)

A-11 Canister half - Pass Details

Date: 03 November 2020
Orbit: 1525 x 1683 km, 47.3° (Epoch: 23 November)

Event Time Altitude Azimuth Distance (km) Brightness Sun altitude
Rises 15:59:26 0° 214° (SW) 4,845 12.5 27.9°
Reaches altitude 10° 16:02:47 10° 208° (SSW) 3,839 12.4 27.8°
Maximum altitude 16:11:43 43° 141° (SE) 2,115 10.7 27.7°
Drops below altitude 10° 16:20:23 10° 74° (ENE) 3,739 10.9 27.5°
Sets 16:23:36 0° 68° (ENE) 4,709 11.3 27.4°
